Weather History for DeLand, FL

Change the Weather History Date:

Saturday, February 22, 2014

  Actual Average Record
Temperature  
Mean Temperature 64 °F -  
Max Temperature 71 °F 74 °F 84 °F (2013)
Min Temperature 57 °F 50 °F 57 °F (2014)
Degree Days  
Heating Degree Days 1    
Growing Degree Days 14 (Base 50)    
Moisture  
Dew Point 63 °F    
Average Humidity 92    
Maximum Humidity 100    
Minimum Humidity 73    
Precipitation  
Precipitation 0.00 in - - ()
Sea Level Pressure  
Sea Level Pressure 30.09 in    
Wind  
Wind Speed 3 mph (NNE)    
Max Wind Speed 9 mph    
Max Gust Speed -    
Averages and records for this station are not official NWS values.
T = Trace of Precipitation, MM = Missing Value Source: NWS Daily Summary

Daily Weather History Graph

Daily Weather History Graph

Search for Another Location

Airport:

Trip Planner

Search our weather history database for the weather conditions in past years. The results will help you decide how hot, cold, wet, or windy it might be!

Date:

Astronomy

Feb. 22, 2014 Rise Set
Actual Time 6:57 AM EST 6:20 PM EST
Civil Twilight 6:33 AM EST 6:44 PM EST
Nautical Twilight 6:05 AM EST 7:11 PM EST
Astronomical Twilight 5:38 AM EST 7:39 PM EST
Moon 12:40 AM EST (2/22) 11:41 AM EST (2/22)
Length of Visible Light 12h 10m
Length of Day
11h 22m
Waning Gibbous, 50% of the Moon is Illuminated
Feb 22
Waning Gibbous
Feb 22
Last Quarter
Mar 1
New
Mar 8
First Quarter
Mar 16
Full

Hourly Weather History & Observations

Time (EST) Temp. Dew Point Humidity Pressure Visibility Wind Dir Wind Speed Gust Speed Precip Events Conditions
12:15 AM 64.4 °F 64.4 °F 100% 30.08 in - Calm Calm - N/A   Mostly Cloudy
12:35 AM 64.4 °F 64.4 °F 100% 30.07 in - Calm Calm - N/A   Unknown
12:55 AM 64.4 °F 64.4 °F 100% 30.07 in - Calm Calm - N/A   Unknown
1:15 AM 64.4 °F 64.4 °F 100% 30.07 in - Calm Calm - N/A   Unknown
1:35 AM 64.4 °F 64.4 °F 100% 30.07 in - Calm Calm - N/A   Unknown
1:55 AM 64.4 °F 64.4 °F 100% 30.06 in - SSW 3.5 mph - N/A   Unknown
2:15 AM 64.4 °F 64.4 °F 100% 30.06 in - SW 3.5 mph - N/A   Mostly Cloudy
2:35 AM 66.2 °F 64.4 °F 94% 30.05 in - Calm Calm - N/A   Mostly Cloudy
2:55 AM 66.2 °F 64.4 °F 94% 30.05 in - West 3.5 mph - N/A   Unknown
3:15 AM 66.2 °F 64.4 °F 94% 30.06 in - SW 3.5 mph - N/A   Overcast
3:35 AM 66.2 °F 66.2 °F 100% 30.05 in - Calm Calm - N/A   Overcast
3:55 AM 66.2 °F 66.2 °F 100% 30.04 in - West 3.5 mph - N/A   Overcast
4:15 AM 66.2 °F 66.2 °F 100% 30.04 in - WSW 3.5 mph - N/A   Unknown
4:35 AM 66.2 °F 66.2 °F 100% 30.04 in - WSW 3.5 mph - N/A   Unknown
4:55 AM 66.2 °F 66.2 °F 100% 30.05 in - WSW 3.5 mph - N/A   Unknown
5:15 AM 66.2 °F 66.2 °F 100% 30.05 in - Calm Calm - N/A   Unknown
5:35 AM 66.2 °F 66.2 °F 100% 30.06 in - Calm Calm - N/A   Unknown
5:55 AM 66.2 °F 66.2 °F 100% 30.06 in - Calm Calm - N/A   Unknown
6:15 AM 66.2 °F 66.2 °F 100% 30.06 in - Calm Calm - N/A   Overcast
6:35 AM 66.2 °F 66.2 °F 100% 30.07 in - Calm Calm - N/A   Overcast
6:55 AM 66.2 °F 66.2 °F 100% 30.08 in - Calm Calm - N/A   Overcast
7:15 AM 66.2 °F 66.2 °F 100% 30.09 in - Calm Calm - N/A   Unknown
7:35 AM 66.2 °F 66.2 °F 100% 30.09 in - Calm Calm - N/A   Overcast
7:55 AM 66.2 °F 66.2 °F 100% 30.09 in - Calm Calm - N/A   Overcast
8:15 AM 66.2 °F 66.2 °F 100% 30.10 in - Calm Calm - N/A   Overcast
8:35 AM 66.2 °F 66.2 °F 100% 30.11 in - Calm Calm - N/A   Overcast
8:55 AM 66.2 °F 66.2 °F 100% 30.12 in - NW 4.6 mph - N/A   Overcast
9:35 AM 68.0 °F 68.0 °F 100% 30.13 in - NNW 3.5 mph - N/A   Overcast
9:55 AM 68.0 °F 68.0 °F 100% 30.14 in - North 5.8 mph - N/A   Overcast
10:15 AM 68.0 °F 68.0 °F 100% 30.13 in - North 4.6 mph - N/A   Overcast
10:35 AM 68.0 °F 68.0 °F 100% 30.14 in - NNW 5.8 mph - N/A   Overcast
10:55 AM 68.0 °F 68.0 °F 100% 30.14 in - North 3.5 mph - N/A   Overcast
11:15 AM 68.0 °F 68.0 °F 100% 30.13 in - NNE 6.9 mph - N/A   Overcast
11:35 AM 68.0 °F 66.2 °F 94% 30.13 in - North 6.9 mph - N/A   Overcast
11:55 AM 68.0 °F 68.0 °F 100% 30.13 in - NNE 5.8 mph - N/A   Overcast
12:15 PM 68.0 °F 66.2 °F 94% 30.12 in - NNE 9.2 mph - N/A   Overcast
12:35 PM 66.2 °F 66.2 °F 100% 30.11 in - NNE 9.2 mph - N/A   Overcast
12:55 PM 66.2 °F 64.4 °F 94% 30.10 in - NNE 6.9 mph - N/A   Overcast
1:15 PM 66.2 °F 64.4 °F 94% 30.09 in - NNE 6.9 mph - N/A   Overcast
1:35 PM 68.0 °F 64.4 °F 88% 30.08 in - NE 8.1 mph - N/A   Overcast
1:55 PM 68.0 °F 64.4 °F 88% 30.08 in - NNE 5.8 mph - N/A   Overcast
2:15 PM 68.0 °F 64.4 °F 88% 30.07 in - NE 5.8 mph - N/A   Overcast
2:35 PM 69.8 °F 64.4 °F 83% 30.06 in - NE 5.8 mph - N/A   Overcast
2:55 PM 69.8 °F 64.4 °F 83% 30.06 in - NNE 8.1 mph - N/A   Overcast
3:15 PM 69.8 °F 64.4 °F 83% 30.06 in - NE 8.1 mph - N/A   Overcast
3:35 PM 71.6 °F 64.4 °F 78% 30.06 in - NNE 8.1 mph - N/A   Overcast
3:55 PM 69.8 °F 62.6 °F 78% 30.07 in - NNE 6.9 mph - N/A   Overcast
4:15 PM 68.0 °F 62.6 °F 83% 30.07 in - NE 9.2 mph - N/A   Overcast
4:35 PM 68.0 °F 62.6 °F 83% 30.07 in - NE 6.9 mph - N/A   Mostly Cloudy
4:55 PM 68.0 °F 60.8 °F 78% 30.08 in - ENE 6.9 mph - N/A   Mostly Cloudy
5:15 PM 66.2 °F 59.0 °F 78% 30.09 in - NE 8.1 mph - N/A   Overcast
5:35 PM 66.2 °F 59.0 °F 78% 30.09 in - NE 8.1 mph - N/A   Overcast
5:55 PM 66.2 °F 59.0 °F 78% 30.09 in - NE 8.1 mph - N/A   Overcast
6:15 PM 66.2 °F 57.2 °F 73% 30.09 in - NE 6.9 mph - N/A   Overcast
6:35 PM 64.4 °F 57.2 °F 77% 30.09 in - NNE 5.8 mph - N/A   Overcast
6:55 PM 64.4 °F 57.2 °F 77% 30.10 in - North 4.6 mph - N/A   Overcast
7:15 PM 64.4 °F 57.2 °F 77% 30.10 in - North 5.8 mph - N/A   Overcast
7:35 PM 64.4 °F 57.2 °F 77% 30.10 in - NNE 3.5 mph - N/A   Overcast
7:55 PM 62.6 °F 57.2 °F 82% 30.11 in - Calm Calm - N/A   Mostly Cloudy
8:15 PM 62.6 °F 57.2 °F 82% 30.11 in - Calm Calm - N/A   Clear
8:35 PM 60.8 °F 55.4 °F 82% 30.12 in - Calm Calm - N/A   Unknown
8:55 PM 60.8 °F 55.4 °F 82% 30.12 in - Calm Calm - N/A   Clear
9:15 PM 59.0 °F 55.4 °F 88% 30.12 in - Calm Calm - N/A   Unknown
9:35 PM 59.0 °F 55.4 °F 88% 30.12 in - Calm Calm - N/A   Unknown
9:55 PM 57.2 °F 55.4 °F 94% 30.12 in - Calm Calm - N/A   Unknown
10:15 PM 57.2 °F 55.4 °F 94% 30.12 in - Calm Calm - N/A   Unknown
10:35 PM 57.2 °F 55.4 °F 94% 30.12 in - Calm Calm - N/A   Unknown
10:55 PM 57.2 °F 55.4 °F 94% 30.12 in - Calm Calm - N/A   Unknown
11:15 PM 57.2 °F 55.4 °F 94% 30.11 in - Calm Calm - N/A   Unknown
11:35 PM 57.2 °F 55.4 °F 94% 30.11 in - Calm Calm - N/A   Unknown
11:55 PM 57.2 °F 55.4 °F 94% 30.11 in - Calm Calm - N/A   Unknown